| time (UTC) | temp C | wind direction | speed KPH | gust KPH | rain 1hr cm | rain 24hr cm | rain mn cm | humidity % | barometer mb |
| 20260505014520 | 16 | 154 | 1.6 | 22.5 | 0.00 | 0.00 | 0.00 | 48 | 1008.6 |
| 20260505013023 | 16 | 266 | 0.0 | 12.9 | 0.00 | 0.00 | 0.00 | 50 | 1008.3 |
| 20260505011515 | 13 | 200 | 0.0 | 0.0 | 0.00 | 0.00 | 0.00 | 57 | 1008.0 |
| 20260505010010 | 14 | 200 | 0.0 | 0.0 | 0.00 | 0.00 | 0.00 | 53 | 1007.7 |
| 20260505004505 | 15 | 200 | 0.0 | 0.0 | 0.00 | 0.00 | 0.00 | 50 | 1007.4 |
| 20260505003003 | 16 | 200 | 0.0 | 0.0 | 0.00 | 0.00 | 0.00 | 45 | 1007.1 |
| 20260505001559 | 17 | 200 | 0.0 | 1.6 | 0.00 | 0.00 | 0.00 | 44 | 1006.8 |
| 20260504234600 | 18 | 238 | 0.0 | 0.0 | 0.00 | 0.00 | 0.00 | 38 | 1006.4 |
| 20260504233045 | 19 | 238 | 0.0 | 0.0 | 0.00 | 0.00 | 0.00 | 37 | 1006.4 |
| 20260504231555 | 20 | 230 | 0.0 | 4.8 | 0.00 | 0.00 | 0.00 | 36 | 1006.1 |
| 20260504230036 | 20 | 227 | 0.0 | 0.0 | 0.00 | 0.00 | 0.00 | 35 | 1005.9 |
| 20260504224537 | 20 | 273 | 0.0 | 4.8 | 0.00 | 0.00 | 0.00 | 34 | 1005.7 |
| 20260504223028 | 21 | 233 | 0.0 | 1.6 | 0.00 | 0.00 | 0.00 | 34 | 1005.6 |
| 20260504221522 | 21 | 317 | 0.0 | 6.4 | 0.00 | 0.00 | 0.00 | 33 | 1005.6 |
| 20260504220020 | 22 | 305 | 0.0 | 9.7 | 0.00 | 0.00 | 0.00 | 31 | 1005.6 |
| 20260504214515 | 22 | 316 | 0.0 | 11.3 | 0.00 | 0.00 | 0.00 | 31 | 1005.5 |
| 20260504213011 | 22 | 229 | 0.0 | 9.7 | 0.00 | 0.00 | 0.00 | 32 | 1005.5 |
| 20260504211504 | 22 | 243 | 0.0 | 14.5 | 0.00 | 0.00 | 0.00 | 29 | 1005.7 |
| 20260504210001 | 22 | 168 | 0.0 | 11.3 | 0.00 | 0.00 | 0.00 | 31 | 1005.4 |
| 20260504204603 | 23 | 241 | 0.0 | 11.3 | 0.00 | 0.00 | 0.00 | 30 | 1005.4 |
| 20260504203052 | 22 | 290 | 0.0 | 9.7 | 0.00 | 0.00 | 0.00 | 31 | 1005.6 |
| 20260504201550 | 23 | 170 | 0.0 | 3.2 | 0.00 | 0.00 | 0.00 | 30 | 1005.6 |
| 20260504200042 | 23 | 319 | 0.0 | 6.4 | 0.00 | 0.00 | 0.00 | 30 | 1005.6 |
| 20260504194558 | 23 | 240 | 0.0 | 8.0 | 0.00 | 0.00 | 0.00 | 29 | 1005.7 |
| 20260504193034 | 22 | 184 | 0.0 | 14.5 | 0.00 | 0.00 | 0.00 | 31 | 1005.8 |
| 20260504191540 | 22 | 111 | 0.0 | 8.0 | 0.00 | 0.00 | 0.00 | 31 | 1005.8 |
| 20260504190029 | 21 | 199 | 0.0 | 8.0 | 0.00 | 0.00 | 0.00 | 31 | 1005.9 |
| 20260504184530 | 21 | 252 | 0.0 | 9.7 | 0.00 | 0.00 | 0.00 | 32 | 1006.1 |
| 20260504183019 | 21 | 290 | 0.0 | 9.7 | 0.00 | 0.00 | 0.00 | 34 | 1006.1 |
| 20260504181514 | 21 | 206 | 1.6 | 24.1 | 0.00 | 0.00 | 0.00 | 31 | 1006.0 |
| 20260504180014 | 21 | 237 | 0.0 | 6.4 | 0.00 | 0.00 | 0.00 | 31 | 1006.1 |
| 20260504174506 | 21 | 242 | 1.6 | 29.0 | 0.00 | 0.00 | 0.00 | 31 | 1006.1 |
| 20260504173003 | 21 | 212 | 1.6 | 19.3 | 0.00 | 0.00 | 0.00 | 30 | 1006.3 |
| 20260504171557 | 21 | 274 | 0.0 | 25.7 | 0.00 | 0.00 | 0.00 | 34 | 1006.2 |
| 20260504140124 | 16 | 287 | 0.0 | 4.8 | 0.00 | 0.05 | 0.00 | 46 | 1008.6 |
| 20260504081519 | 3 | 34 | 0.0 | 0.0 | 0.00 | 0.05 | 0.00 | 1 | 1010.0 |
| 20260504050021 | 0 | 34 | 0.0 | 0.0 | 0.00 | 0.05 | 0.00 | 1 | 1009.8 |
| 20260504044515 | 0 | 33 | 0.0 | 0.0 | 0.00 | 0.05 | 0.00 | 6 | 1009.9 |
| 20260504043011 | 1 | 33 | 0.0 | 0.0 | 0.00 | 0.05 | 0.00 | 9 | 1009.8 |
| 20260504041507 | 1 | 33 | 0.0 | 0.0 | 0.00 | 0.05 | 0.00 | 17 | 1009.8 |
| 20260504040007 | 1 | 34 | 0.0 | 0.0 | 0.00 | 0.05 | 0.05 | 18 | 1009.8 |
| 20260504034558 | 1 | 33 | 0.0 | 0.0 | 0.00 | 0.05 | 0.05 | 26 | 1009.7 |
| 20260504033057 | 2 | 33 | 0.0 | 0.0 | 0.00 | 0.05 | 0.05 | 27 | 1009.6 |
| 20260504031612 | 2 | 34 | 0.0 | 0.0 | 0.00 | 0.05 | 0.05 | 38 | 1009.3 |
| 20260504030045 | 2 | 33 | 0.0 | 0.0 | 0.00 | 0.05 | 0.05 | 46 | 1009.3 |
| 20260504024543 | 3 | 34 | 0.0 | 0.0 | 0.00 | 0.05 | 0.05 | 50 | 1009.3 |
| 20260504023037 | 3 | 34 | 0.0 | 0.0 | 0.00 | 0.05 | 0.05 | 57 | 1009.4 |
| 20260504021532 | 4 | 33 | 0.0 | 0.0 | 0.00 | 0.05 | 0.05 | 59 | 1009.3 |
| 20260504020030 | 4 | 34 | 0.0 | 0.0 | 0.00 | 0.08 | 0.05 | 60 | 1009.2 |